sat.trackr.live / text

‹ back to catalog

STARLINK-33814

NORAD 63582 · 2025-076P

PAYLOAD ACTIVE UNKNOWN

§ Identity

Operator
Country
US
Launch date
2025-04-14
Launch site
AFETR
Launch vehicle
Mass (kg)
RCS (m²)

Purposes: comms

External: N2YO · Heavens-Above · Gunter

§ Orbital elements

Epoch: 2026-09-20T09:53:24.509472Z

Period
94.27 min
Inclination
42.9975°
Eccentricity
0.0001361
Mean motion
15.27582066 rev/d
Perigee alt
482.1 km
Apogee alt
484.0 km
Semi-major
6,861.2 km
B*
3.2730e-4
RAAN
301.7437°
Arg perigee
281.7462°
Mean anomaly
78.3236°
Rev number
8,161

§ Raw data

STARLINK-338141 63582U 25076P   26263.41208923  .00008756  00000+0  32730-3 0  99952 63582  42.9975 301.7437 0001361 281.7462  78.3236 15.27582066 81615

JSON: /api/v1/satellites/63582 · /tle

For live sub-satellite position, see the globe view (requires WebGL).

§ Visibility from observer

Set your observer location to see the next 7 days of passes ≥ 10°. The values pass through the URL so the page stays shareable.

No JS? Fill the form by hand. The geolocation button needs JavaScript.